Tiempo atmosférico en la estación meteorológica de Aguilar De Campoo, Palencia (910 m.)



Fecha
DESCASC
Temp. máxima en grados centígrados (hora)
DESCASC
Temp. mínima en grados centígrados (hora)
DESCASC
Temp. media en grados centígrados
DESCASC
Racha de viento máxima en m/sg (hora)
DESCASC
Velocidad máxima media en intervalos de 10 minutos(hora)
DESCASC
Precipitaciones diarias en mm
DESCASC
Precipitaciones de 00:00 a 06:00 en mm
DESCASC
Precipitaciones de 06:00 a 12:00 en mm
DESCASC
Precipitaciones de 12:00 a 18:00 en mm
DESCASC
Precipitaciones de 18:00 a 24:00 en mm
DESCASC
08-12-2019 5.9 (20:00) 3.6 (06:00) 4.8 4.17 (01:20) 2.78 (01:20) 0.8 0 0.2 0.4 0.2
07-12-2019 7.4 (13:40) -1.5 (07:50) 3 4.17 (15:20) 2.78 (06:50) 0 0 0 0 0
06-12-2019 10 (15:20) -2.8 (07:40) 3.6 5.83 (13:00) 3.33 (13:10) 0 0 0 0 0
05-12-2019 7.4 (01:30) 1.6 (00:00) 4.5 11.11 (02:00) 5 (06:20) 0 0 0 0 0
04-12-2019 10.1 (14:40) -3.3 (02:50) 3.4 10.56 (23:40) 6.67 (23:40) 0 0 0 0 0
03-12-2019 5.2 (14:40) -2.7 (-00:0) 1.2 10.28 (07:20) 5.28 (13:30) 0 0 0 0 0
02-12-2019 6.5 (12:40) 2 (00:00) 4.3 10.83 (22:30) 5 (14:00) 0.6 0 0.2 0.4 0
01-12-2019 8.6 (16:00) 3.2 (00:00) 5.9 7.78 (16:40) 3.89 (16:40) 1.2 0.8 0.2 0 0.2
30-11-2019 11.5 (12:10) 2.9 (00:00) 7.2 13.06 (15:10) 7.78 (15:30) 5.4 2 2.4 1 0
29-11-2019 12.9 (15:30) 4.5 (00:00) 8.7 5.56 (16:00) 2.78 (16:00) 0 0 0 0 0
28-11-2019 10.3 (15:30) 7.5 (00:00) 8.9 10 (15:20) 5 (11:00) 7.2 0.4 1.2 2.4 3.2
27-11-2019 8.4 (12:20) 6.3 (00:00) 7.3 11.94 (01:30) 7.5 (01:50) 2.6 0 0 1.8 0.8
26-11-2019 12.6 (14:10) 7.8 (00:00) 10.2 14.72 (19:40) 6.39 (19:40) 5.4 0.8 3.2 0.6 0.8
25-11-2019 12.1 (13:40) 6.3 (00:00) 9.2 8.33 (15:00) 5 (14:40) 2.4 1.6 0.8 0 0
24-11-2019 6.7 (13:40) -0.9 (-00:0) 2.9 10.28 (14:00) 5 (14:00) 2 0 0 0 2
23-11-2019 8.2 (12:50) -0.1 (00:00) 4 11.39 (01:50) 6.11 (13:20) 1.4 1.2 0.2 0 0
22-11-2019 10.6 (16:00) 3 (00:00) 6.8 13.61 (08:50) 7.5 (13:50) 26 0.6 16.2 9 0.2
21-11-2019 8.8 (16:00) 2.5 (00:00) 5.7 8.89 (11:00) 4.44 (12:20) 0.6 0.4 0.2 0 0
20-11-2019 5.2 (15:20) 1.8 (02:00) 3.5 6.67 (13:50) 3.06 (02:50) 1.6 0 0.2 0.8 0.6
19-11-2019 6.9 (14:30) -3 (-00:0) 2 7.22 (13:40) 3.89 (14:10) 0 0 0 0 0
18-11-2019 5.7 (11:00) -0.6 (-00:0) 2.5 6.39 (13:10) 3.89 (13:10) 1.6 1 0.6 0 0
17-11-2019 8.5 (15:40) 0.8 (00:00) 4.7 6.94 (16:10) 3.89 (01:20) 0.2 0 0 0 0.2
16-11-2019 6.3 (13:50) -3.4 (-00:0) 1.5 9.72 (14:30) 5 (14:10) 0 0 0 0 0
15-11-2019 3.6 (16:00) -1.4 (-00:0) 1.1 8.89 (12:10) 5 (12:10) 12.6 4 7.4 0.8 0.4
14-11-2019 6.5 (01:00) -1.2 (-00:0) 2.6 10.28 (01:40) 5.56 (12:20) 3.2 2.2 0 0.6 0.4
13-11-2019 12.1 (14:30) 4.8 (00:00) 8.5 9.17 (20:40) 5.28 (20:40) 5.2 5 0.2 0 0
12-11-2019 10.1 (13:50) 1.4 (00:00) 5.8 8.33 (14:30) 4.44 (15:20) 5.4 0 0 0.4 5
11-11-2019 10.1 (15:00) 0.4 (02:50) 5.3 7.78 (14:10) 3.89 (19:10) 0 0 0 0 0
10-11-2019 5.9 (15:30) -0.1 (00:00) 2.9 8.89 (16:00) 3.33 (14:20) 9.8 0.6 5.8 3.4 0

Gráficas

Temp. máximas Temp. mínimas Temp. medias Precipitaciones Rachas de viento máximas Velocidades máximas media en intervalos de 10 minutos

Datos horarios

Fecha y hora oficial Temperatura (ºC) Velocidad del viento (km/h) Dirección del viento Racha (km/h) Dirección de racha Precipitación (mm) Presión (hPa) Tendencia (hPa) Humedad (%)
2019-12-09 23:00:00 -0.9 0 Calma 8 Este 0 -- -- 98
2019-12-09 22:00:00 -0.4 2 Nordeste 10 Este 0 -- -- 98
2019-12-09 21:00:00 0.2 0 Calma 11 Este 0 -- -- 98
2019-12-09 20:00:00 1.1 0 Calma 10 Este 0 -- -- 97
2019-12-09 19:00:00 1.9 3 Este 6 Este 0 -- -- 96
2019-12-09 18:00:00 3.2 0 Calma 6 Este 0 -- -- 94
2019-12-09 17:00:00 4.4 3 Este 8 Noroeste 0 -- -- 92
2019-12-09 16:00:00 4.1 2 Nordeste 6 Norte 0 -- -- 92
2019-12-09 15:00:00 3.3 3 Norte 9 Norte 0 -- -- 94
2019-12-09 14:00:00 2.6 4 Norte 12 Norte 0 -- -- 98
2019-12-09 13:00:00 1.9 3 Noroeste 15 Noroeste 0 -- -- 97
2019-12-09 12:00:00 2.4 4 Oeste 13 Noroeste 0 -- -- 95
2019-12-09 11:00:00 2.3 7 Noroeste 10 Noroeste 0 -- -- 95
2019-12-09 10:00:00 0.4 3 Norte 9 Norte 0 -- -- 100
2019-12-09 09:00:00 -1.9 3 Norte 12 Este 0 -- -- 100
2019-12-09 08:00:00 -1.7 4 Este 12 Este 0 -- -- 100
2019-12-09 07:00:00 -1.2 0 Calma 16 Este 0 -- -- 100
2019-12-09 06:00:00 -1 5 Este 11 Este 0 -- -- 100
2019-12-09 05:00:00 -0.3 3 Este 8 Este 0 -- -- 100
2019-12-09 04:00:00 -0.3 4 Norte 10 Noroeste 0 -- -- 99
2019-12-09 03:00:00 1.4 6 Norte 13 Norte 0 -- -- 99
2019-12-09 02:00:00 3 4 Norte 10 Noroeste 0 -- -- 99
2019-12-09 01:00:00 4.3 3 Norte 13 Noroeste 0 -- -- 100
2019-12-09 00:00:00 4.9 6 Norte 11 Nordeste 0 -- -- 100
2019-12-08 23:00:00 5.6 7 Norte 12 Norte 0 -- -- 100
2019-12-08 22:00:00 5.9 4 Norte 7 Norte 0 -- -- 100
2019-12-08 21:00:00 5.9 3 Norte 6 Noroeste 0.2 -- -- 100
2019-12-08 20:00:00 5.9 0 Calma 6 Noroeste 0 -- -- 100
2019-12-08 19:00:00 5.8 0 Calma 5 Noroeste 0 -- -- 100
2019-12-08 18:00:00 5.6 3 Noroeste 7 Oeste 0 -- -- 99
2019-12-08 17:00:00 5.5 3 Sudoeste 9 Sudoeste 0 -- -- 99
2019-12-08 16:00:00 5.4 3 Oeste 14 Noroeste 0 -- -- 99
2019-12-08 15:00:00 5.5 6 Oeste 12 Oeste 0 -- -- 99
2019-12-08 14:00:00 5.3 3 Oeste 12 Noroeste 0 -- -- 100
2019-12-08 13:00:00 4.7 4 Oeste 10 Noroeste 0.4 -- -- 100
2019-12-08 12:00:00 3.9 8 Noroeste 14 Noroeste 0.2 -- -- 100
2019-12-08 11:00:00 3.9 4 Oeste 15 Oeste 0 -- -- 100
2019-12-08 10:00:00 4 2 Norte 6 Norte 0 -- -- 100
2019-12-08 09:00:00 3.8 2 Noroeste 5 Este 0 -- -- 100
2019-12-08 08:00:00 3.6 3 Norte 8 Norte 0 -- -- 100
2019-12-08 07:00:00 3.7 4 Norte 14 Norte 0 -- -- 100
2019-12-08 06:00:00 3.6 4 Norte 13 Noroeste 0 -- -- 100
2019-12-08 05:00:00 3.8 5 Norte 13 Norte 0 -- -- 100
2019-12-08 04:00:00 4 6 Norte 12 Norte 0 -- -- 100
2019-12-08 03:00:00 4 4 Norte 14 Norte 0 -- -- 100
2019-12-08 02:00:00 4.2 5 Norte 15 Noroeste 0 -- -- 100
2019-12-08 01:00:00 4.7 6 Noroeste 12 Noroeste 0 -- -- 100
2019-12-08 00:00:00 4.8 4 Norte 10 Noroeste 0 -- -- 100
2019-12-07 23:00:00 5 0 Calma 6 Norte 0 -- -- 100
2019-12-07 22:00:00 5.1 4 Nordeste 12 Norte 0 -- -- 99
2019-12-07 21:00:00 5.3 3 Norte 12 Norte 0 -- -- 99
2019-12-07 20:00:00 5.2 6 Noroeste 12 Norte 0 -- -- 99
2019-12-07 19:00:00 5 3 Norte 10 Noroeste 0 -- -- 99
2019-12-07 18:00:00 5.1 4 Noroeste 12 Norte 0 -- -- 97
2019-12-07 17:00:00 5.6 5 Noroeste 13 Oeste 0 -- -- 96
2019-12-07 16:00:00 5.9 5 Noroeste 15 Oeste 0 -- -- 95
2019-12-07 15:00:00 7.3 7 Noroeste 14 Noroeste 0 -- -- 89
2019-12-07 14:00:00 7.4 8 Sudoeste 14 Sudoeste 0 -- -- 91
2019-12-07 13:00:00 5.2 4 Oeste 9 Oeste 0 -- -- 100
2019-12-07 12:00:00 3.6 0 Calma 5 Sudeste 0 -- -- 100
2019-12-07 11:00:00 2.2 4 Este 9 Este 0 -- -- 100
2019-12-07 10:00:00 1.3 2 Oeste 8 Sudeste 0 -- -- 100
2019-12-07 09:00:00 -0.5 2 Este 9 Este 0 -- -- 99
2019-12-07 08:00:00 -1.4 3 Este 10 Este 0 -- -- 99
2019-12-07 07:00:00 -1.1 6 Este 13 Este 0 -- -- 98
2019-12-07 06:00:00 -1 0 Calma 10 Este 0 -- -- 98
2019-12-07 05:00:00 -0.6 0 Calma 12 Este 0 -- -- 97
2019-12-07 04:00:00 -0.3 2 Nordeste 10 Este 0 -- -- 98
2019-12-07 03:00:00 0.8 5 Este 11 Este 0 -- -- 98
2019-12-07 02:00:00 1.8 2 Este 10 Este 0 -- -- 97
2019-12-07 01:00:00 2.4 5 Este 9 Este 0 -- -- 99
2019-12-07 00:00:00 1.6 3 Este 11 Este 0 -- -- 97
2019-12-06 23:00:00 2.3 2 Este 14 Este 0 -- -- 96
2019-12-06 22:00:00 2.9 0 Calma 3 Nordeste 0 -- -- 94
2019-12-06 21:00:00 4.6 0 Calma 5 Este 0 -- -- 94
2019-12-06 20:00:00 4.7 0 Calma 4 Este 0 -- -- 93
2019-12-06 19:00:00 4.9 0 Calma 4 Noroeste 0 -- -- 91
2019-12-06 18:00:00 7 0 Calma 9 Noroeste 0 -- -- 85
2019-12-06 17:00:00 8.7 3 Oeste 9 Noroeste 0 -- -- 81
2019-12-06 16:00:00 9.4 4 Noroeste 13 Oeste 0 -- -- 76
2019-12-06 15:00:00 9.5 6 Norte 14 Norte 0 -- -- 76
2019-12-06 14:00:00 9.5 5 Noroeste 19 Oeste 0 -- -- 74
2019-12-06 13:00:00 8.7 11 Oeste 21 Oeste 0 -- -- 77
2019-12-06 12:00:00 5.9 8 Noroeste 12 Noroeste 0 -- -- 82
2019-12-06 11:00:00 2.5 2 Sudeste 5 Este 0 -- -- 99
2019-12-06 10:00:00 -0.8 3 Sudeste 6 Este 0 -- -- 98
2019-12-06 09:00:00 -2.5 0 Calma 2 Sudeste 0 -- -- 98
2019-12-06 08:00:00 -2.7 0 Calma 4 Este 0 -- -- 98
2019-12-06 07:00:00 -2.4 0 Calma 4 Este 0 -- -- 97
2019-12-06 06:00:00 -2.2 0 Calma 6 Sudeste 0 -- -- 97
2019-12-06 05:00:00 -1.9 2 Sudeste 5 Sudeste 0 -- -- 97
2019-12-06 04:00:00 -1.5 0 Calma 7 Este 0 -- -- 97
2019-12-06 03:00:00 -0.8 9 Este 15 Este 0 -- -- 97
2019-12-06 02:00:00 -1 0 Calma 6 Sudeste 0 -- -- 96
2019-12-06 01:00:00 0.3 3 Este 13 Este 0 -- -- 96
2019-12-06 00:00:00 1.6 7 Este 14 Nordeste 0 -- -- 95
2019-12-05 23:00:00 2 2 Este 7 Este 0 -- -- 96
2019-12-05 22:00:00 3.2 3 Nordeste 11 Sudeste 0 -- -- 94
2019-12-05 21:00:00 4.5 8 Sudeste 13 Sudeste 0 -- -- 90
2019-12-05 20:00:00 6 9 Sudeste 15 Sur 0 -- -- 88
2019-12-05 19:00:00 6.8 8 Sur 17 Sudeste 0 -- -- 87
2019-12-05 18:00:00 6.9 7 Sudeste 17 Sudeste 0 -- -- 87
2019-12-05 17:00:00 6.9 8 Sur 18 Este 0 -- -- 88
2019-12-05 16:00:00 7 5 Sudeste 23 Sudeste 0 -- -- 86
2019-12-05 15:00:00 7.1 9 Sudeste 23 Sur 0 -- -- 87
2019-12-05 14:00:00 7.2 9 Sudeste 24 Sudeste 0 -- -- 87
2019-12-05 13:00:00 6.9 8 Sudeste 26 Sur 0 -- -- 88
2019-12-05 12:00:00 6.7 8 Sur 27 Este 0 -- -- 88
2019-12-05 11:00:00 6.6 7 Sudeste 35 Sur 0 -- -- 88
2019-12-05 10:00:00 5.8 9 Sudeste 26 Este 0 -- -- 88
2019-12-05 09:00:00 5.5 9 Sudeste 27 Sudeste 0 -- -- 86
2019-12-05 08:00:00 5.5 13 Sudeste 32 Sur 0 -- -- 88
2019-12-05 07:00:00 5.6 13 Sudeste 37 Este 0 -- -- 88
2019-12-05 06:00:00 6.3 17 Sudeste 32 Sudeste 0 -- -- 88
2019-12-05 05:00:00 6.2 15 Sudeste 36 Este 0 -- -- 85
2019-12-05 04:00:00 6.1 17 Sudeste 36 Este 0 -- -- 89
2019-12-05 03:00:00 6.7 16 Sudeste 35 Sudeste 0 -- -- 83
2019-12-05 02:00:00 7.3 15 Sudeste 40 Este 0 -- -- 77
2019-12-05 01:00:00 7.2 13 Sudeste 32 Sudeste 0 -- -- 75
2019-12-05 00:00:00 6.5 15 Sudeste 38 Sudeste 0 -- -- 78
2019-12-04 23:00:00 0.6 4 Sudoeste 17 Sudeste 0 -- -- 97
2019-12-04 22:00:00 0.9 4 Este 13 Este 0 -- -- 89
2019-12-04 21:00:00 3.5 12 Sudeste 29 Sur 0 -- -- 83
2019-12-04 20:00:00 2.9 7 Sur 17 Sur 0 -- -- 89
2019-12-04 19:00:00 3.4 4 Nordeste 19 Sur 0 -- -- 87
2019-12-04 18:00:00 4.5 6 Sur 32 Sur 0 -- -- 79
2019-12-04 17:00:00 6.6 15 Sur 35 Sudeste 0 -- -- 69
2019-12-04 16:00:00 8.9 17 Sur 29 Sur 0 -- -- 62
2019-12-04 15:00:00 10 13 Sudeste 28 Sudeste 0 -- -- 63
2019-12-04 14:00:00 9.2 12 Sudeste 27 Sur 0 -- -- 64
2019-12-04 13:00:00 7.2 5 Sudoeste 10 Sudoeste 0 -- -- 75
2019-12-04 12:00:00 4.3 3 Sudoeste 5 Sudoeste 0 -- -- 85
2019-12-04 11:00:00 2.2 3 Sudoeste 6 Sudoeste 0 -- -- 91
2019-12-04 10:00:00 -0.8 3 Sur 14 Este 0 -- -- 96
2019-12-04 09:00:00 -2.3 9 Este 15 Este 0 -- -- 96
2019-12-04 08:00:00 -2.5 4 Sudeste 8 Este 0 -- -- 97
2019-12-04 07:00:00 -2.4 3 Nordeste 11 Nordeste 0 -- -- 96
2019-12-04 06:00:00 -2.1 5 Este 13 Nordeste 0 -- -- 97
2019-12-04 05:00:00 -2.4 4 Este 11 Sudeste 0 -- -- 97
2019-12-04 04:00:00 -2.9 5 Este 9 Sudeste 0 -- -- 96
2019-12-04 03:00:00 -3.3 3 Este 8 Este 0 -- -- 95
2019-12-04 02:00:00 -2.8 6 Este 10 Este 0 -- -- 96
2019-12-04 01:00:00 -3 2 Oeste 10 Este 0 -- -- 95
2019-12-04 00:00:00 -2.7 6 Este 13 Este 0 -- -- 95
2019-12-03 23:00:00 -2.4 0 Calma 10 Este 0 -- -- 95
2019-12-03 22:00:00 -2 5 Este 11 Este 0 -- -- 94
2019-12-03 21:00:00 -1.7 3 Este 9 Este 0 -- -- 92
2019-12-03 20:00:00 -0.9 2 Nordeste 12 Sudeste 0 -- -- 90
2019-12-03 19:00:00 1.1 8 Sudeste 22 Sur 0 -- -- 83
2019-12-03 18:00:00 1.8 11 Sur 21 Sudoeste 0 -- -- 80
2019-12-03 17:00:00 3.6 12 Sur 27 Sudoeste 0 -- -- 71
2019-12-03 16:00:00 4.4 13 Sur 37 Sudeste 0 -- -- 69
2019-12-03 15:00:00 4.7 15 Sur 27 Sudoeste 0 -- -- 69
2019-12-03 14:00:00 4.7 11 Sudeste 37 Sudeste 0 -- -- 73
2019-12-03 13:00:00 4.4 15 Sur 34 Sur 0 -- -- 70
2019-12-03 12:00:00 4.2 15 Sur 36 Sur 0 -- -- 72
2019-12-03 11:00:00 3.2 14 Sudeste 26 Este 0 -- -- 76
2019-12-03 10:00:00 2 11 Sudeste 28 Sudeste 0 -- -- 82
2019-12-03 09:00:00 1.9 13 Sur 28 Sur 0 -- -- 84
2019-12-03 08:00:00 1.9 13 Sur 37 Sudeste 0 -- -- 84
2019-12-03 07:00:00 1.6 12 Sudeste 27 Sur 0 -- -- 84
2019-12-03 06:00:00 1.6 10 Sur 32 Sudeste 0 -- -- 87
2019-12-03 05:00:00 1.7 10 Sudeste 27 Sur 0 -- -- 89
2019-12-03 04:00:00 2.1 6 Sur 32 Sudeste 0 -- -- 81
2019-12-03 03:00:00 1.7 15 Sur 28 Sudeste 0 -- -- 87
2019-12-03 02:00:00 1.9 9 Sudeste 27 Sudeste 0 -- -- 86
2019-12-03 01:00:00 1.8 8 Sur 21 Sudeste 0 -- -- 83
2019-12-03 00:00:00 2 4 Sudoeste 22 Este 0 -- -- 87
2019-12-02 23:00:00 2 10 Sudeste 39 Este 0 -- -- 82
2019-12-02 22:00:00 2.4 6 Sur 36 Sudeste 0 -- -- 81
2019-12-02 21:00:00 2.5 9 Sudeste 31 Este 0 -- -- 82
2019-12-02 20:00:00 2.3 12 Sudeste 36 Sudeste 0 -- -- 83
2019-12-02 19:00:00 2.5 8 Sur 35 Este 0 -- -- 84
2019-12-02 18:00:00 3.1 10 Sudeste 26 Sudeste 0 -- -- 83
2019-12-02 17:00:00 3.5 12 Sudeste 26 Sur 0 -- -- 88
2019-12-02 16:00:00 3.9 7 Sudeste 33 Sur 0.2 -- -- 93
2019-12-02 15:00:00 4.8 14 Sudeste 35 Sudeste 0.2 -- -- 92
2019-12-02 14:00:00 5.8 18 Sudeste 33 Sudeste 0 -- -- 86
2019-12-02 13:00:00 6 17 Sudeste 33 Sudeste 0 -- -- 86
2019-12-02 12:00:00 5.4 13 Sudeste 36 Sudeste 0 -- -- 90
2019-12-02 11:00:00 4.9 7 Sudeste 29 Sudeste 0 -- -- 91
2019-12-02 10:00:00 4.6 11 Sudeste 23 Este 0.2 -- -- 94
2019-12-02 09:00:00 4.1 0 Calma 19 Sudeste 0 -- -- 93
2019-12-02 08:00:00 4.2 4 Sudeste 24 Sudeste 0 -- -- 92
2019-12-02 07:00:00 4.5 8 Sudeste 20 Este 0 -- -- 93
2019-12-02 06:00:00 4.3 10 Sudeste 35 Sudeste 0 -- -- 92
2019-12-02 05:00:00 4 11 Sudeste 26 Sudeste 0 -- -- 87
2019-12-02 04:00:00 3.9 6 Sur 25 Este 0 -- -- 91
2019-12-02 03:00:00 4.1 7 Sur 18 Sudeste 0 -- -- 90
2019-12-02 02:00:00 3.3 8 Sudeste 15 Sudeste 0 -- -- 92
2019-12-02 01:00:00 3.6 5 Sudoeste 16 Sur 0 -- -- 95
2019-12-02 00:00:00 3.4 10 Sur 20 Sudeste 0 -- -- 95
2019-12-01 23:00:00 3.3 11 Sur 20 Sur 0 -- -- 94
2019-12-01 22:00:00 3.8 9 Sur 17 Sur 0.2 -- -- 92
2019-12-01 21:00:00 4.4 2 Norte 10 Sudeste 0 -- -- 90
2019-12-01 20:00:00 4.6 9 Sur 17 Sudeste 0 -- -- 87
2019-12-01 19:00:00 4.9 3 Sudeste 18 Este 0 -- -- 88
2019-12-01 18:00:00 5.6 0 Calma 19 Sudeste 0 -- -- 86
2019-12-01 17:00:00 7.4 12 Sudeste 28 Este 0 -- -- 77
2019-12-01 16:00:00 8.6 11 Sudeste 19 Sur 0 -- -- 74
2019-12-01 15:00:00 7.3 8 Sur 13 Sur 0 -- -- 85
2019-12-01 14:00:00 7.1 5 Sur 9 Sur 0 -- -- 84
2019-12-01 13:00:00 6.5 3 Sur 7 Sur 0 -- -- 85
2019-12-01 12:00:00 5.8 2 Nordeste 6 Sudoeste 0 -- -- 91
2019-12-01 11:00:00 5.3 0 Calma 8 Oeste 0 -- -- 94
2019-12-01 10:00:00 4.8 3 Noroeste 4 Noroeste 0 -- -- 96
2019-12-01 09:00:00 4.6 0 Calma 6 Oeste 0 -- -- 96
2019-12-01 08:00:00 4.7 4 Oeste 15 Oeste 0.2 -- -- 96
2019-12-01 07:00:00 4.6 4 Oeste 12 Noroeste 0 -- -- 98
2019-12-01 06:00:00 4.4 3 Oeste 8 Noroeste 0.4 -- -- 98
2019-12-01 05:00:00 4 0 Calma 7 Sudoeste 0.4 -- -- 98
2019-12-01 04:00:00 3.7 5 Oeste 13 Noroeste 0 -- -- 96
2019-12-01 03:00:00 3.4 6 Noroeste 13 Norte 0 -- -- 95
2019-12-01 02:00:00 3.3 5 Noroeste 16 Noroeste 0 -- -- 93
2019-12-01 01:00:00 3.3 5 Noroeste 20 Norte 0 -- -- 91
2019-12-01 00:00:00 3.4 10 Noroeste 18 Noroeste 0 -- -- 92
2019-11-30 23:00:00 3.7 10 Noroeste 22 Noroeste 0 -- -- 87
2019-11-30 22:00:00 4.5 4 Este 33 Norte 0 -- -- 81
2019-11-30 21:00:00 6.1 25 Norte 33 Norte 0 -- -- 75
2019-11-30 20:00:00 5.2 2 Este 22 Norte 0 -- -- 81
2019-11-30 19:00:00 6.6 11 Noroeste 21 Noroeste 0 -- -- 77
2019-11-30 18:00:00 6.8 6 Noroeste 18 Norte 0 -- -- 82
2019-11-30 17:00:00 7.7 6 Norte 20 Norte 0 -- -- 80
2019-11-30 16:00:00 7 12 Noroeste 47 Norte 0.2 -- -- 76
2019-11-30 15:00:00 8.7 24 Norte 40 Norte 0.4 -- -- 84
2019-11-30 14:00:00 9.9 21 Norte 32 Norte 0 -- -- 80
2019-11-30 13:00:00 10.3 21 Norte 37 Noroeste 0.4 -- -- 85
2019-11-30 12:00:00 11.4 11 Norte 33 Noroeste 0 -- -- 93
2019-11-30 11:00:00 10.9 14 Noroeste 39 Oeste 1.6 -- -- 97
2019-11-30 10:00:00 10.6 11 Noroeste 32 Sudoeste 0.4 -- -- 97
2019-11-30 09:00:00 10.4 16 Noroeste 45 Oeste 0.2 -- -- 97
2019-11-30 08:00:00 10.4 14 Noroeste 30 Noroeste 0 -- -- 97
2019-11-30 07:00:00 10.5 12 Noroeste 31 Noroeste 0.2 -- -- 96
2019-11-30 06:00:00 10.2 11 Norte 27 Norte 0.2 -- -- 99
2019-11-30 05:00:00 7.5 3 Noroeste 8 Norte 0.4 -- -- 100
2019-11-30 04:00:00 7.1 0 Calma 6 Noroeste 1 -- -- 99
2019-11-30 03:00:00 6.7 0 Calma 6 Noroeste 0.4 -- -- 99
2019-11-30 02:00:00 5.9 2 Norte 12 Nordeste 0 -- -- 99
2019-11-30 01:00:00 5.2 9 Este 18 Este 0 -- -- 98
2019-11-30 00:00:00 4.9 0 Calma 13 Este 0 -- -- 98
2019-11-29 23:00:00 4.8 4 Sudeste 11 Este 0 -- -- 99
2019-11-29 22:00:00 4.5 0 Calma 5 Este 0 -- -- 96
2019-11-29 21:00:00 5.2 2 Este 5 Este 0 -- -- 95
2019-11-29 20:00:00 6.8 3 Noroeste 8 Oeste 0 -- -- 91
2019-11-29 19:00:00 8.5 4 Oeste 18 Oeste 0 -- -- 88
2019-11-29 18:00:00 9.3 9 Noroeste 17 Oeste 0 -- -- 86
2019-11-29 17:00:00 12.3 6 Oeste 15 Oeste 0 -- -- 76
2019-11-29 16:00:00 12.7 10 Noroeste 20 Noroeste 0 -- -- 70
2019-11-29 15:00:00 12.6 7 Oeste 15 Noroeste 0 -- -- 73
2019-11-29 14:00:00 11.7 4 Noroeste 9 Norte 0 -- -- 83
2019-11-29 13:00:00 10.7 8 Norte 11 Norte 0 -- -- 86
2019-11-29 12:00:00 9.5 7 Norte 11 Norte 0 -- -- 96
2019-11-29 11:00:00 8 4 Norte 8 Norte 0 -- -- 100
2019-11-29 10:00:00 6.8 3 Este 9 Este 0 -- -- 100
2019-11-29 09:00:00 6.6 5 Nordeste 10 Este 0 -- -- 99
2019-11-29 08:00:00 7.5 7 Sudeste 12 Sudeste 0 -- -- 100
2019-11-29 07:00:00 7.5 8 Sudeste 11 Sudeste 0 -- -- 100
2019-11-29 06:00:00 6.6 0 Calma 8 Este 0 -- -- 99
2019-11-29 05:00:00 7.5 5 Sudeste 9 Este 0 -- -- 98
2019-11-29 04:00:00 8.6 3 Este 18 Oeste 0 -- -- 97
2019-11-29 03:00:00 9.2 5 Norte 9 Norte 0 -- -- 98
2019-11-29 02:00:00 9.6 0 Calma 14 Norte 0 -- -- 98
2019-11-29 01:00:00 9.7 3 Norte 11 Norte 0 -- -- 98
2019-11-29 00:00:00 9.7 4 Noroeste 15 Noroeste 0.2 -- -- 98
2019-11-28 23:00:00 9.6 6 Norte 17 Norte 0.2 -- -- 98
2019-11-28 22:00:00 9.5 8 Norte 23 Noroeste 0.4 -- -- 98
2019-11-28 21:00:00 9.3 5 Norte 13 Norte 0.4 -- -- 97
2019-11-28 20:00:00 9.1 8 Norte 24 Norte 2 -- -- 96
2019-11-28 19:00:00 9.5 13 Noroeste 31 Noroeste 0 -- -- 93
2019-11-28 18:00:00 9.8 14 Norte 29 Noroeste 0.8 -- -- 94
2019-11-28 17:00:00 9.8 10 Norte 33 Noroeste 1.4 -- -- 94
2019-11-28 16:00:00 10.2 14 Norte 36 Noroeste 0 -- -- 90
2019-11-28 15:00:00 10 15 Norte 32 Noroeste 0 -- -- 91
2019-11-28 14:00:00 9.8 14 Norte 32 Noroeste 0 -- -- 92
2019-11-28 13:00:00 9.6 14 Norte 29 Norte 0.2 -- -- 96
2019-11-28 12:00:00 9.4 13 Norte 26 Noroeste 0 -- -- 96
2019-11-28 11:00:00 9.3 18 Norte 34 Norte 0 -- -- 95
2019-11-28 10:00:00 9 10 Norte 25 Nordeste 0.4 -- -- 97
2019-11-28 09:00:00 8.6 10 Norte 21 Norte 0.2 -- -- 98
2019-11-28 08:00:00 8.2 6 Norte 14 Norte 0.4 -- -- 98
2019-11-28 07:00:00 8.1 8 Norte 14 Norte 0.2 -- -- 97
2019-11-28 06:00:00 7.9 6 Norte 18 Norte 0 -- -- 96
2019-11-28 05:00:00 7.8 5 Norte 22 Norte 0 -- -- 94
2019-11-28 04:00:00 7.9 12 Norte 25 Noroeste 0.2 -- -- 94
2019-11-28 03:00:00 7.7 13 Noroeste 25 Noroeste 0 -- -- 95
2019-11-28 02:00:00 7.6 9 Noroeste 25 Noroeste 0.2 -- -- 95
2019-11-28 01:00:00 7.5 9 Noroeste 23 Noroeste 0 -- -- 95
2019-11-28 00:00:00 7.5 9 Norte 24 Norte 0.2 -- -- 94
2019-11-27 23:00:00 7.5 9 Norte 27 Norte 0 -- -- 94
2019-11-27 22:00:00 7.5 10 Norte 24 Noroeste 0.6 -- -- 94
2019-11-27 21:00:00 7.5 8 Norte 28 Norte 0 -- -- 91
2019-11-27 20:00:00 7.6 12 Norte 25 Norte 0 -- -- 87
2019-11-27 19:00:00 7.9 15 Norte 27 Norte 0 -- -- 90
2019-11-27 18:00:00 7.8 10 Noroeste 27 Norte 0 -- -- 91
2019-11-27 17:00:00 8 13 Norte 27 Norte 0 -- -- 91
2019-11-27 16:00:00 7.8 20 Norte 33 Norte 0.8 -- -- 88
2019-11-27 15:00:00 8.1 15 Norte 36 Norte 0.8 -- -- 93
2019-11-27 14:00:00 8.2 12 Norte 38 Norte 0.2 -- -- 91
2019-11-27 06:00:00 -- -- -- -- -- -- -- -- --
2019-11-27 05:00:00 6.3 12 Noroeste 28 Noroeste 0 -- -- 90
2019-11-27 04:00:00 6.4 9 Noroeste 21 Noroeste 0 -- -- 84
2019-11-27 03:00:00 6.5 6 Norte 38 Norte 0 -- -- 81
2019-11-27 02:00:00 6.9 24 Norte 43 Norte 0 -- -- 76
2019-11-27 01:00:00 7.2 12 Norte 38 Norte 0 -- -- 78
2019-11-27 00:00:00 8 21 Norte 37 Norte 0 -- -- 78
2019-11-26 23:00:00 8.8 17 Norte 48 Norte 0 -- -- 81
2019-11-26 22:00:00 9.3 23 Norte 43 Norte 0.6 -- -- 84
2019-11-26 21:00:00 10 18 Noroeste 52 Norte 0 -- -- 89
2019-11-26 20:00:00 11.1 21 Noroeste 53 Oeste 0.2 -- -- 85
2019-11-26 19:00:00 11.4 16 Noroeste 42 Noroeste 0 -- -- 85
2019-11-26 18:00:00 12 18 Norte 41 Norte 0 -- -- 84
2019-11-26 17:00:00 12.1 14 Norte 40 Noroeste 0 -- -- 90
2019-11-26 16:00:00 11.9 14 Norte 37 Norte 0.2 -- -- 92
2019-11-26 15:00:00 11.8 16 Norte 42 Norte 0.2 -- -- 92
2019-11-26 14:00:00 12.4 14 Norte 36 Norte 0 -- -- 90
2019-11-26 13:00:00 11.5 18 Noroeste 40 Noroeste 0.2 -- -- 96
2019-11-26 12:00:00 10.9 12 Norte 31 Oeste 0.2 -- -- 98
2019-11-26 11:00:00 9.8 16 Noroeste 32 Oeste 0.4 -- -- 99
2019-11-26 10:00:00 8.9 6 Noroeste 15 Oeste 1 -- -- 98
2019-11-26 09:00:00 8.6 6 Noroeste 16 Oeste 0.6 -- -- 99
2019-11-26 08:00:00 8.3 4 Noroeste 13 Oeste 0.2 -- -- 99
2019-11-26 07:00:00 7.9 0 Calma 8 Nordeste 0.8 -- -- 98
2019-11-26 06:00:00 8.1 4 Norte 9 Norte 0.6 -- -- 98
2019-11-26 05:00:00 7.9 0 Calma 16 Norte 0.2 -- -- 97
2019-11-26 04:00:00 8.1 10 Norte 18 Norte 0 -- -- 96
2019-11-26 03:00:00 7.8 7 Noroeste 17 Norte 0 -- -- 96
2019-11-26 02:00:00 7.8 12 Norte 23 Noroeste 0 -- -- 95
2019-11-26 01:00:00 7.9 14 Noroeste 33 Norte 0 -- -- 95
2019-11-26 00:00:00 7.9 13 Noroeste 27 Norte 0 -- -- 95
2019-11-25 23:00:00 8 8 Norte 19 Noroeste 0 -- -- 93
2019-11-25 22:00:00 7.9 4 Oeste 13 Norte 0 -- -- 89
2019-11-25 21:00:00 9 5 Noroeste 27 Norte 0 -- -- 82
2019-11-25 20:00:00 9.6 15 Norte 29 Norte 0 -- -- 78
2019-11-25 19:00:00 9.6 10 Norte 22 Norte 0 -- -- 80
2019-11-25 18:00:00 10.2 5 Norte 24 Noroeste 0 -- -- 79
2019-11-25 17:00:00 10.8 16 Norte 30 Norte 0 -- -- 79
2019-11-25 16:00:00 11.2 4 Nordeste 28 Nordeste 0 -- -- 77
2019-11-25 15:00:00 11.7 13 Norte 30 Norte 0 -- -- 75
2019-11-25 14:00:00 11.4 15 Norte 26 Norte 0 -- -- 75
2019-11-25 13:00:00 10.8 13 Norte 28 Norte 0 -- -- 81
2019-11-25 12:00:00 10.1 12 Norte 21 Norte 0 -- -- 85
2019-11-25 11:00:00 9.1 13 Norte 26 Norte 0.2 -- -- 95
2019-11-25 10:00:00 8.8 4 Norte 19 Noroeste 0.2 -- -- 97
2019-11-25 09:00:00 8.3 7 Norte 16 Noroeste 0.2 -- -- 97
2019-11-25 08:00:00 8.1 7 Norte 15 Noroeste 0 -- -- 97
2019-11-25 07:00:00 8.3 6 Norte 18 Noroeste 0.2 -- -- 99
2019-11-25 06:00:00 7.8 2 Noroeste 13 Oeste 0.4 -- -- 100
2019-11-25 05:00:00 7.5 3 Sudoeste 11 Sudoeste 0 -- -- 100
2019-11-25 04:00:00 7 5 Noroeste 13 Oeste 0 -- -- 100
2019-11-25 03:00:00 6.7 7 Oeste 16 Oeste 0.2 -- -- 99
2019-11-25 02:00:00 6.7 3 Noroeste 8 Oeste 0.2 -- -- 99
2019-11-25 01:00:00 6.4 4 Noroeste 5 Noroeste 0.8 -- -- 99
2019-11-25 00:00:00 6.3 3 Sudoeste 8 Oeste 0.2 -- -- 99
2019-11-24 23:00:00 6 3 Noroeste 5 Noroeste 0.8 -- -- 98
2019-11-24 22:00:00 6.1 4 Noroeste 13 Norte 0.2 -- -- 97
2019-11-24 21:00:00 5.9 8 Noroeste 18 Noroeste 0.6 -- -- 98
2019-11-24 20:00:00 5.2 8 Nordeste 18 Norte 0.2 -- -- 95
2019-11-24 19:00:00 5.8 8 Norte 15 Noroeste 0 -- -- 93
2019-11-24 18:00:00 6.1 8 Norte 23 Norte 0 -- -- 88
2019-11-24 17:00:00 6.4 13 Norte 26 Noroeste 0 -- -- 82
2019-11-24 16:00:00 6.5 12 Noroeste 33 Norte 0 -- -- 80
2019-11-24 15:00:00 6.4 11 Noroeste 31 Norte 0 -- -- 79
2019-11-24 14:00:00 6.5 18 Norte 37 Norte 0 -- -- 77
2019-11-24 13:00:00 6.3 10 Noroeste 24 Oeste 0 -- -- 83
2019-11-24 12:00:00 5.4 4 Noroeste 11 Noroeste 0 -- -- 86
2019-11-24 11:00:00 3.2 7 Oeste 10 Noroeste 0 -- -- 95
2019-11-24 10:00:00 0.9 0 Calma 4 Noroeste 0 -- -- 99
2019-11-24 09:00:00 -0.7 0 Calma 5 Sudeste 0 -- -- 98
2019-11-24 08:00:00 -0.5 3 Nordeste 17 Este 0 -- -- 97
2019-11-24 07:00:00 -0.9 8 Este 17 Este 0 -- -- 96
2019-11-24 06:00:00 -0.4 2 Este 7 Nordeste 0 -- -- 94
2019-11-24 05:00:00 2.2 5 Norte 15 Norte 0 -- -- 92
2019-11-24 04:00:00 2.8 5 Nordeste 17 Norte 0 -- -- 89
2019-11-24 03:00:00 2.5 4 Nordeste 17 Norte 0 -- -- 90
2019-11-24 02:00:00 3.2 13 Norte 26 Norte 0 -- -- 87
2019-11-24 01:00:00 1.7 9 Norte 18 Norte 0 -- -- 96
2019-11-24 00:00:00 0.2 3 Este 9 Sudeste 0 -- -- 95
2019-11-23 23:00:00 0.1 2 Nordeste 18 Este 0 -- -- 93
2019-11-23 22:00:00 0.2 3 Sudeste 9 Sudeste 0 -- -- 92
2019-11-23 21:00:00 1.3 0 Calma 10 Sudeste 0 -- -- 89
2019-11-23 20:00:00 2.4 0 Calma 21 Noroeste 0 -- -- 85
2019-11-23 19:00:00 4 9 Norte 17 Noroeste 0 -- -- 80
2019-11-23 18:00:00 5.4 5 Norte 12 Noroeste 0 -- -- 79
2019-11-23 17:00:00 7.7 5 Norte 23 Norte 0 -- -- 71
2019-11-23 16:00:00 6.9 14 Norte 32 Norte 0 -- -- 76
2019-11-23 15:00:00 7.5 17 Norte 26 Norte 0 -- -- 74
2019-11-23 14:00:00 7 15 Norte 40 Norte 0 -- -- 75
2019-11-23 13:00:00 8.2 10 Norte 19 Norte 0 -- -- 67
2019-11-23 12:00:00 7.1 11 Noroeste 22 Norte 0 -- -- 78
2019-11-23 11:00:00 4.9 10 Norte 18 Norte 0 -- -- 80
2019-11-23 10:00:00 4.2 4 Nordeste 29 Norte 0 -- -- 85
2019-11-23 09:00:00 4.3 14 Norte 24 Norte 0 -- -- 82
2019-11-23 08:00:00 4 12 Norte 22 Noroeste 0 -- -- 87
2019-11-23 07:00:00 3.6 11 Norte 23 Norte 0.2 -- -- 94
2019-11-23 06:00:00 3.4 9 Noroeste 23 Norte 0.6 -- -- 95
2019-11-23 05:00:00 3.5 11 Norte 25 Norte 0.6 -- -- 93
2019-11-23 04:00:00 4.5 13 Norte 35 Norte 0 -- -- 89
2019-11-23 03:00:00 5.1 17 Norte 34 Noroeste 0 -- -- 86
2019-11-23 02:00:00 6 21 Norte 41 Noroeste 0 -- -- 84
2019-11-23 01:00:00 6 10 Noroeste 35 Noroeste 0 -- -- 87
2019-11-23 00:00:00 6.6 16 Noroeste 40 Norte 0.2 -- -- 88
2019-11-22 23:00:00 6.9 14 Noroeste 36 Noroeste 0 -- -- 91
2019-11-22 22:00:00 6.8 11 Noroeste 44 Noroeste 0 -- -- 90
2019-11-22 21:00:00 6.5 15 Noroeste 35 Norte 0 -- -- 90
2019-11-22 20:00:00 6.4 13 Noroeste 40 Noroeste 0 -- -- 89
2019-11-22 19:00:00 6.8 13 Norte 23 Norte 0 -- -- 91
2019-11-22 18:00:00 6.6 8 Norte 42 Norte 1.8 -- -- 91
2019-11-22 17:00:00 10 14 Norte 46 Norte 0 -- -- 84
2019-11-22 16:00:00 10.6 13 Noroeste 47 Oeste 0 -- -- 88
2019-11-22 15:00:00 9.7 18 Noroeste 46 Noroeste 0.4 -- -- 93
2019-11-22 14:00:00 8.1 27 Oeste 45 Oeste 3 -- -- 97
2019-11-22 13:00:00 7.3 21 Oeste 46 Oeste 3.8 -- -- 97
2019-11-22 12:00:00 6.6 18 Oeste 41 Oeste 3.6 -- -- 97
2019-11-22 11:00:00 6.2 21 Oeste 41 Oeste 2.4 -- -- 97
2019-11-22 10:00:00 5.8 17 Oeste 36 Oeste 3 -- -- 97
2019-11-22 09:00:00 5.3 13 Oeste 49 Noroeste 3.6 -- -- 93
2019-11-22 08:00:00 5.6 15 Noroeste 30 Noroeste 2.2 -- -- 95
2019-11-22 07:00:00 5.4 16 Noroeste 36 Oeste 1.4 -- -- 95
2019-11-22 06:00:00 5.4 8 Noroeste 27 Oeste 0.6 -- -- 94
2019-11-22 05:00:00 5.1 9 Noroeste 36 Sudoeste 0 -- -- 97
2019-11-22 04:00:00 4.8 9 Noroeste 29 Noroeste 0 -- -- 96
2019-11-22 03:00:00 4.2 7 Noroeste 19 Oeste 0 -- -- 95
2019-11-22 02:00:00 3.4 6 Oeste 16 Norte 0 -- -- 96
2019-11-22 01:00:00 3.1 4 Noroeste 15 Norte 0 -- -- 94
2019-11-22 00:00:00 3.1 6 Noroeste 18 Oeste 0 -- -- 92
2019-11-21 23:00:00 3.7 4 Noroeste 13 Noroeste 0 -- -- 90
2019-11-21 22:00:00 3 6 Oeste 12 Oeste 0 -- -- 91
2019-11-21 21:00:00 3.1 0 Calma 8 Oeste 0 -- -- 88
2019-11-21 20:00:00 4 0 Calma 4 Sudoeste 0 -- -- 86
2019-11-21 19:00:00 4.4 3 Sur 8 Sudoeste 0 -- -- 81
2019-11-21 18:00:00 6.1 0 Calma 14 Noroeste 0 -- -- 74
2019-11-21 17:00:00 7.4 6 Noroeste 21 Norte 0 -- -- 67
2019-11-21 16:00:00 8.8 11 Norte 31 Norte 0 -- -- 61
2019-11-21 15:00:00 8.2 14 Norte 30 Norte 0 -- -- 65
2019-11-21 14:00:00 7.6 13 Norte 28 Noroeste 0 -- -- 66
2019-11-21 13:00:00 7.3 15 Norte 29 Norte 0 -- -- 66
2019-11-21 12:00:00 6.6 14 Norte 27 Noroeste 0 -- -- 72
2019-11-21 11:00:00 5.8 11 Noroeste 32 Noroeste 0 -- -- 83
2019-11-21 10:00:00 4.7 5 Norte 19 Noroeste 0 -- -- 95
2019-11-21 09:00:00 4.3 7 Noroeste 19 Norte 0 -- -- 96
2019-11-21 08:00:00 4.2 6 Noroeste 23 Oeste 0 -- -- 95
2019-11-21 07:00:00 4.3 5 Noroeste 17 Oeste 0.2 -- -- 95
2019-11-21 06:00:00 4.3 4 Noroeste 14 Noroeste 0 -- -- 94
2019-11-21 05:00:00 4.3 4 Noroeste 21 Oeste 0 -- -- 93
2019-11-21 04:00:00 4.6 8 Noroeste 20 Oeste 0 -- -- 95
2019-11-21 03:00:00 4.6 9 Noroeste 22 Norte 0 -- -- 95
2019-11-21 02:00:00 4.7 11 Norte 23 Norte 0.2 -- -- 95
2019-11-21 01:00:00 4.9 10 Noroeste 22 Norte 0.2 -- -- 95
2019-11-21 00:00:00 4.9 8 Norte 21 Noroeste 0 -- -- 95
2019-11-20 23:00:00 4.9 8 Noroeste 23 Oeste 0.2 -- -- 97
2019-11-20 22:00:00 4.7 7 Noroeste 20 Norte 0.2 -- -- 97
2019-11-20 21:00:00 4.6 6 Noroeste 22 Oeste 0.2 -- -- 97
2019-11-20 20:00:00 4.6 9 Oeste 22 Oeste 0 -- -- 98
2019-11-20 19:00:00 4.4 9 Noroeste 21 Oeste 0 -- -- 97
2019-11-20 18:00:00 4.3 4 Oeste 14 Oeste 0 -- -- 95
2019-11-20 17:00:00 4.5 6 Norte 21 Norte 0.2 -- -- 93
2019-11-20 16:00:00 5.1 6 Norte 15 Noroeste 0.4 -- -- 95
2019-11-20 15:00:00 5 4 Noroeste 21 Noroeste 0.2 -- -- 96
2019-11-20 14:00:00 4.4 8 Noroeste 24 Noroeste 0 -- -- 97
2019-11-20 13:00:00 4.3 8 Noroeste 21 Oeste 0 -- -- 96
2019-11-20 12:00:00 3.9 8 Oeste 20 Oeste 0.2 -- -- 95
2019-11-20 11:00:00 3.6 6 Oeste 16 Oeste 0 -- -- 97
2019-11-20 10:00:00 3.4 7 Oeste 12 Oeste 0 -- -- 97
2019-11-20 09:00:00 3.4 3 Noroeste 11 Norte 0 -- -- 97
2019-11-20 08:00:00 3.3 5 Noroeste 11 Noroeste 0 -- -- 96
2019-11-20 07:00:00 3.3 2 Oeste 13 Noroeste 0 -- -- 95
2019-11-20 06:00:00 3.6 9 Noroeste 15 Norte 0 -- -- 92
2019-11-20 05:00:00 4.4 9 Noroeste 18 Noroeste 0 -- -- 90
2019-11-20 04:00:00 4.4 8 Noroeste 17 Norte 0 -- -- 89
2019-11-20 03:00:00 4 11 Norte 20 Norte 0 -- -- 90
2019-11-20 02:00:00 1.8 0 Calma 8 Noroeste 0 -- -- 93
2019-11-20 01:00:00 2.6 4 Noroeste 13 Noroeste 0 -- -- 93
2019-11-20 00:00:00 2.3 5 Noroeste 10 Noroeste 0 -- -- 95
2019-11-19 23:00:00 1.9 0 Calma 8 Norte 0 -- -- 92
2019-11-19 22:00:00 2.4 2 Noroeste 12 Norte 0 -- -- 91
2019-11-19 21:00:00 2.8 4 Norte 10 Norte 0 -- -- 88
2019-11-19 20:00:00 3.5 7 Norte 14 Noroeste 0 -- -- 86
2019-11-19 19:00:00 4 6 Noroeste 15 Noroeste 0 -- -- 84
2019-11-19 18:00:00 4.8 7 Noroeste 20 Norte 0 -- -- 81
2019-11-19 17:00:00 5.9 10 Noroeste 23 Noroeste 0 -- -- 73
2019-11-19 16:00:00 6.7 10 Norte 22 Noroeste 0 -- -- 72
2019-11-19 15:00:00 6.8 10 Norte 22 Noroeste 0 -- -- 71
2019-11-19 14:00:00 6.5 12 Norte 26 Norte 0 -- -- 76
2019-11-19 13:00:00 5.3 9 Noroeste 15 Norte 0 -- -- 82
2019-11-19 12:00:00 4 8 Noroeste 15 Norte 0 -- -- 87
2019-11-19 11:00:00 2.9 3 Noroeste 7 Norte 0 -- -- 93
2019-11-19 10:00:00 0.4 0 Calma 4 Este 0 -- -- 98
2019-11-19 09:00:00 -2 0 Calma 3 Sudeste 0 -- -- 99
2019-11-19 08:00:00 -3 0 Calma 4 Este 0 -- -- 98
2019-11-19 07:00:00 -1.9 3 Nordeste 6 Norte 0 -- -- 99
2019-11-19 06:00:00 -3 0 Calma 10 Este 0 -- -- 97
2019-11-19 05:00:00 -2.4 2 Este 7 Este 0 -- -- 98
2019-11-19 04:00:00 -1.8 3 Nordeste 7 Este 0 -- -- 98
2019-11-19 03:00:00 -1.6 0 Calma 5 Sudeste 0 -- -- 98
2019-11-19 02:00:00 -0.8 3 Este 12 Este 0 -- -- 98
2019-11-19 01:00:00 0.2 2 Nordeste 13 Este 0 -- -- 98
2019-11-19 00:00:00 0.3 3 Sudeste 9 Este 0 -- -- 99
2019-11-18 23:00:00 -0.2 4 Este 10 Este 0 -- -- 98
2019-11-18 22:00:00 -0.6 3 Sudeste 11 Este 0 -- -- 97
2019-11-18 21:00:00 0.2 2 Nordeste 6 Este 0 -- -- 96
2019-11-18 20:00:00 1.2 3 Norte 9 Sur 0 -- -- 94
2019-11-18 19:00:00 2.5 4 Este 10 Sudeste 0 -- -- 91
2019-11-18 18:00:00 3.7 5 Sudeste 14 Sur 0 -- -- 89
2019-11-18 17:00:00 4.2 6 Sudeste 17 Sur 0 -- -- 86
2019-11-18 16:00:00 5.4 9 Sur 18 Sudeste 0 -- -- 83
2019-11-18 15:00:00 4.4 6 Sudeste 16 Sudeste 0 -- -- 91
2019-11-18 14:00:00 4.4 5 Sudeste 23 Sudeste 0 -- -- 88
2019-11-18 13:00:00 4.8 13 Sudeste 21 Sur 0 -- -- 86
2019-11-18 12:00:00 4.4 8 Sur 18 Sur 0.2 -- -- 91
2019-11-18 11:00:00 5.7 3 Sudoeste 9 Norte 0 -- -- 84
2019-11-18 10:00:00 3.1 3 Sudoeste 4 Oeste 0 -- -- 99
2019-11-18 09:00:00 1.8 2 Sur 8 Sudeste 0.2 -- -- 99
2019-11-18 08:00:00 0.9 2 Norte 8 Este 0.2 -- -- 99
2019-11-18 07:00:00 0.6 3 Este 5 Sudeste 0 -- -- 98
2019-11-18 06:00:00 1.4 0 Calma 9 Este 0.4 -- -- 98
2019-11-18 05:00:00 1.1 6 Este 9 Este 0 -- -- 97
2019-11-18 04:00:00 2.1 2 Sudoeste 5 Sudeste 0 -- -- 97
2019-11-18 03:00:00 2.1 0 Calma 9 Sur 0.2 -- -- 96
2019-11-18 02:00:00 2.7 5 Sur 10 Sudeste 0.4 -- -- 95
2019-11-18 01:00:00 2.8 0 Calma 6 Noroeste 0 -- -- 96
2019-11-18 00:00:00 2.8 4 Oeste 8 Oeste 0.2 -- -- 94
2019-11-17 23:00:00 2.9 0 Calma 7 Sur 0 -- -- 92
2019-11-17 22:00:00 3.6 3 Sudeste 8 Este 0 -- -- 86
2019-11-17 21:00:00 3 3 Este 9 Norte 0 -- -- 85
2019-11-17 20:00:00 3.8 5 Norte 6 Norte 0 -- -- 83
2019-11-17 19:00:00 5 4 Nordeste 19 Noroeste 0 -- -- 77
2019-11-17 18:00:00 5.8 3 Nordeste 19 Noroeste 0 -- -- 77
2019-11-17 17:00:00 8.4 9 Noroeste 25 Norte 0 -- -- 68
2019-11-17 16:00:00 8.4 11 Norte 25 Norte 0 -- -- 75
2019-11-17 15:00:00 7.5 13 Norte 23 Noroeste 0 -- -- 82
2019-11-17 14:00:00 6.1 10 Norte 22 Norte 0 -- -- 88
2019-11-17 13:00:00 5.2 12 Noroeste 17 Norte 0 -- -- 90
2019-11-17 12:00:00 4.5 8 Noroeste 19 Noroeste 0 -- -- 92
2019-11-17 11:00:00 3.7 10 Noroeste 17 Noroeste 0 -- -- 95
2019-11-17 10:00:00 2.8 10 Noroeste 21 Norte 0 -- -- 97
2019-11-17 09:00:00 2.4 10 Noroeste 19 Noroeste 0 -- -- 97
2019-11-17 08:00:00 1.8 6 Noroeste 13 Noroeste 0 -- -- 96
2019-11-17 07:00:00 1.5 5 Norte 18 Noroeste 0 -- -- 95
2019-11-17 06:00:00 0.9 2 Noroeste 9 Noroeste 0 -- -- 94
2019-11-17 05:00:00 1.2 7 Noroeste 15 Noroeste 0 -- -- 93
2019-11-17 04:00:00 0.9 8 Noroeste 18 Noroeste 0 -- -- 93
2019-11-17 03:00:00 1.2 9 Noroeste 13 Noroeste 0 -- -- 90
2019-11-17 02:00:00 2.1 9 Noroeste 23 Noroeste 0 -- -- 86
2019-11-17 01:00:00 2.2 6 Norte 15 Norte 0 -- -- 86
2019-11-17 00:00:00 1.5 2 Sudoeste 12 Norte 0 -- -- 88
2019-11-16 23:00:00 0.9 4 Nordeste 19 Noroeste 0 -- -- 88
2019-11-16 22:00:00 1.4 4 Norte 22 Norte 0 -- -- 85
2019-11-16 21:00:00 0.1 0 Calma 3 Este 0 -- -- 91
2019-11-16 20:00:00 0.8 2 Nordeste 10 Noroeste 0 -- -- 87
2019-11-16 19:00:00 2.2 2 Sur 19 Norte 0 -- -- 80
2019-11-16 18:00:00 4 14 Norte 23 Noroeste 0 -- -- 74
2019-11-16 17:00:00 5.3 7 Norte 27 Norte 0 -- -- 77
2019-11-16 16:00:00 4.5 16 Norte 28 Norte 0 -- -- 77
2019-11-16 15:00:00 4.4 10 Norte 35 Norte 0 -- -- 78
2019-11-16 14:00:00 5.8 14 Norte 27 Norte 0 -- -- 73
2019-11-16 13:00:00 5.2 11 Norte 19 Norte 0 -- -- 81
2019-11-16 12:00:00 3.5 8 Norte 15 Norte 0 -- -- 90
2019-11-16 11:00:00 1.4 3 Norte 7 Norte 0 -- -- 96
2019-11-16 10:00:00 -1.3 0 Calma 8 Este 0 -- -- 99
2019-11-16 09:00:00 -3 3 Norte 6 Este 0 -- -- 99
2019-11-16 08:00:00 -3.3 2 Nordeste 5 Oeste 0 -- -- 98
2019-11-16 07:00:00 -3 2 Nordeste 5 Sudoeste 0 -- -- 99
2019-11-16 06:00:00 -2.5 0 Calma 12 Este 0 -- -- 99
2019-11-16 05:00:00 -2.3 4 Nordeste 10 Este 0 -- -- 99
2019-11-16 04:00:00 -2 2 Sur 10 Este 0 -- -- 98
2019-11-16 03:00:00 -1.8 5 Este 15 Sudeste 0 -- -- 98
2019-11-16 02:00:00 -1 5 Este 10 Este 0 -- -- 98
2019-11-16 01:00:00 -0.4 4 Este 6 Este 0 -- -- 99
2019-11-16 00:00:00 -0.2 2 Nordeste 8 Sudeste 0 -- -- 99
2019-11-15 23:00:00 0 0 Calma 5 Sudoeste 0 -- -- 98
2019-11-15 22:00:00 0.6 4 Sur 7 Sur 0 -- -- 98
2019-11-15 21:00:00 0.3 2 Sudoeste 6 Sudoeste 0 -- -- 97
2019-11-15 20:00:00 1 4 Este 8 Este 0.4 -- -- 97
2019-11-15 19:00:00 1.3 4 Este 9 Este 0 -- -- 97
2019-11-15 18:00:00 1.8 0 Calma 11 Noroeste 0.2 -- -- 94
2019-11-15 17:00:00 2.5 3 Nordeste 9 Nordeste 0.4 -- -- 92
2019-11-15 16:00:00 3.6 5 Noroeste 16 Noroeste 0 -- -- 91
2019-11-15 15:00:00 3.2 11 Noroeste 31 Norte 0 -- -- 92
2019-11-15 14:00:00 2.8 12 Norte 19 Norte 0.2 -- -- 93
2019-11-15 13:00:00 2.5 9 Norte 32 Norte 0 -- -- 92
2019-11-15 12:00:00 2.3 10 Norte 18 Noroeste 0.2 -- -- 93
2019-11-15 11:00:00 1.6 4 Nordeste 11 Norte 0.2 -- -- 97
2019-11-15 10:00:00 0.8 3 Sudoeste 6 Sur 1.2 -- -- 99
2019-11-15 09:00:00 0.4 0 Calma 10 Oeste 1.8 -- -- 98
2019-11-15 08:00:00 0.5 2 Sudeste 19 Nordeste 2 -- -- 98
2019-11-15 07:00:00 0.6 6 Norte 15 Nordeste 2 -- -- 99
2019-11-15 06:00:00 0.4 4 Noroeste 17 Norte 2.2 -- -- 98
2019-11-15 05:00:00 0.4 2 Nordeste 11 Noroeste 1.2 -- -- 98
2019-11-15 04:00:00 0.5 5 Norte 11 Nordeste 0.6 -- -- 98
2019-11-15 03:00:00 -0.2 4 Norte 8 Norte 0 -- -- 97
2019-11-15 02:00:00 -0.8 3 Este 12 Noroeste 0 -- -- 97
2019-11-15 01:00:00 -1.4 0 Calma 8 Este 0 -- -- 96
2019-11-15 00:00:00 -1.2 2 Este 6 Nordeste 0 -- -- 96
2019-11-14 23:00:00 -0.9 3 Nordeste 8 Norte 0 -- -- 97
2019-11-14 22:00:00 -0.5 0 Calma 6 Este 0 -- -- 95
2019-11-14 21:00:00 0.9 4 Sur 9 Sudoeste 0 -- -- 95
2019-11-14 20:00:00 1.5 3 Norte 11 Sudeste 0.2 -- -- 93
2019-11-14 19:00:00 2.5 4 Sudeste 10 Sur 0.2 -- -- 88
2019-11-14 18:00:00 3 6 Norte 18 Norte 0 -- -- 84
2019-11-14 17:00:00 4.1 12 Norte 24 Norte 0 -- -- 77
2019-11-14 16:00:00 4.1 13 Noroeste 24 Norte 0 -- -- 85
2019-11-14 15:00:00 2.3 5 Noroeste 29 Norte 0.6 -- -- 92
2019-11-14 14:00:00 2.6 19 Norte 30 Norte 0 -- -- 82
2019-11-14 13:00:00 3.8 17 Noroeste 36 Noroeste 0 -- -- 73
2019-11-14 12:00:00 4.2 15 Norte 36 Noroeste 0 -- -- 71
2019-11-14 11:00:00 3.9 14 Noroeste 27 Noroeste 0 -- -- 76
2019-11-14 10:00:00 2.8 9 Oeste 18 Noroeste 0 -- -- 78
2019-11-14 09:00:00 0.2 4 Sur 12 Sudeste 0 -- -- 93
2019-11-14 08:00:00 -0.7 3 Sudeste 9 Sudoeste 0 -- -- 95
2019-11-14 07:00:00 0.1 3 Sur 5 Sudeste 0 -- -- 96
2019-11-14 06:00:00 1.5 5 Sudeste 10 Sudeste 0 -- -- 95
2019-11-14 05:00:00 2.4 0 Calma 9 Sur 0 -- -- 94
2019-11-14 04:00:00 2.5 3 Este 19 Sur 0.2 -- -- 92
2019-11-14 03:00:00 4.1 5 Norte 35 Norte 2 -- -- 90
2019-11-14 02:00:00 5.4 13 Noroeste 37 Noroeste 0 -- -- 90
2019-11-14 01:00:00 6.5 15 Noroeste 32 Norte 0 -- -- 79
2019-11-14 00:00:00 6.1 8 Noroeste 20 Noroeste 0 -- -- 81
2019-11-13 23:00:00 6.2 6 Norte 27 Norte 0 -- -- 80
2019-11-13 22:00:00 6.2 15 Norte 22 Noroeste 0 -- -- 82
2019-11-13 21:00:00 7.1 15 Norte 33 Norte 0 -- -- 79
2019-11-13 20:00:00 8.4 16 Norte 27 Norte 0 -- -- 74
2019-11-13 19:00:00 9.3 13 Norte 24 Norte 0 -- -- 71
2019-11-13 18:00:00 9.8 7 Norte 28 Norte 0 -- -- 71
2019-11-13 17:00:00 11.6 13 Norte 25 Noroeste 0 -- -- 62
2019-11-13 16:00:00 11.5 13 Norte 28 Norte 0 -- -- 61
2019-11-13 15:00:00 11.5 14 Norte 28 Noroeste 0 -- -- 60
2019-11-13 14:00:00 10.8 3 Nordeste 13 Norte 0 -- -- 69
2019-11-13 13:00:00 10.7 8 Norte 19 Norte 0 -- -- 69
2019-11-13 12:00:00 10.2 8 Norte 19 Norte 0 -- -- 69
2019-11-13 11:00:00 9.2 4 Noroeste 9 Noroeste 0 -- -- 78
2019-11-13 10:00:00 7.1 2 Oeste 5 Sur 0 -- -- 87
2019-11-13 09:00:00 5.2 4 Nordeste 20 Sudeste 0.2 -- -- 91
2019-11-13 08:00:00 5.2 5 Sudeste 22 Sur 0 -- -- 91
2019-11-13 07:00:00 5.1 0 Calma 15 Sudeste 0 -- -- 93
2019-11-13 06:00:00 6 7 Sudeste 20 Sur 0 -- -- 92
2019-11-13 05:00:00 5.7 4 Sur 11 Sur 0 -- -- 96
2019-11-13 04:00:00 5.8 0 Calma 8 Sur 0 -- -- 97
2019-11-13 03:00:00 6.2 2 Nordeste 11 Norte 0.8 -- -- 97
2019-11-13 02:00:00 6.6 7 Norte 12 Norte 2.6 -- -- 97
2019-11-13 01:00:00 6.7 3 Noroeste 14 Norte 1.6 -- -- 97
2019-11-13 00:00:00 6.7 5 Noroeste 11 Norte 1.4 -- -- 97
2019-11-12 23:00:00 6.5 4 Noroeste 12 Norte 0.4 -- -- 96
2019-11-12 22:00:00 6.4 5 Norte 13 Norte 0.8 -- -- 96
2019-11-12 21:00:00 6.5 5 Norte 13 Norte 1.4 -- -- 96
2019-11-12 20:00:00 6.2 3 Norte 12 Norte 0.2 -- -- 94
2019-11-12 19:00:00 6.1 6 Norte 18 Noroeste 0.8 -- -- 92
2019-11-12 18:00:00 6.5 9 Noroeste 19 Norte 0.2 -- -- 90
2019-11-12 17:00:00 7.2 7 Noroeste 25 Oeste 0.2 -- -- 84
2019-11-12 16:00:00 8.3 9 Norte 27 Norte 0 -- -- 78
2019-11-12 15:00:00 9 11 Norte 30 Norte 0 -- -- 68
2019-11-12 14:00:00 10.1 8 Norte 18 Norte 0 -- -- 66
2019-11-12 13:00:00 9.5 6 Noroeste 15 Oeste 0 -- -- 70
2019-11-12 12:00:00 8.1 6 Oeste 15 Noroeste 0 -- -- 75
2019-11-12 11:00:00 5.7 6 Oeste 10 Oeste 0 -- -- 83
2019-11-12 10:00:00 4.2 5 Oeste 9 Sudoeste 0 -- -- 90
2019-11-12 09:00:00 2 0 Calma 6 Este 0 -- -- 97
2019-11-12 08:00:00 1.7 3 Este 7 Este 0 -- -- 95
2019-11-12 07:00:00 2.1 5 Este 9 Este 0 -- -- 95
2019-11-12 06:00:00 2.3 2 Norte 4 Sudeste 0 -- -- 95
2019-11-12 05:00:00 2.3 0 Calma 6 Este 0 -- -- 94
2019-11-12 04:00:00 2.5 2 Este 5 Norte 0 -- -- 93
2019-11-12 03:00:00 2.5 4 Sudeste 7 Este 0 -- -- 93
2019-11-12 02:00:00 3 2 Sudeste 6 Sudeste 0 -- -- 91
2019-11-12 01:00:00 3.2 0 Calma 8 Nordeste 0 -- -- 91
2019-11-12 00:00:00 3.2 3 Sur 13 Nordeste 0 -- -- 89
2019-11-11 23:00:00 1.3 2 Norte 10 Este 0 -- -- 95
2019-11-11 22:00:00 2 8 Este 14 Este 0 -- -- 92
2019-11-11 21:00:00 3.9 0 Calma 13 Sur 0 -- -- 87
2019-11-11 20:00:00 4.6 6 Nordeste 23 Sur 0 -- -- 84
2019-11-11 19:00:00 5.3 12 Sur 24 Sudeste 0 -- -- 84
2019-11-11 18:00:00 6.2 2 Sur 10 Sudeste 0 -- -- 83
2019-11-11 17:00:00 7.1 6 Sur 14 Sur 0 -- -- 80
2019-11-11 16:00:00 8.8 6 Norte 24 Norte 0 -- -- 69
2019-11-11 15:00:00 10.1 5 Nordeste 28 Este 0 -- -- 62
2019-11-11 14:00:00 9.9 9 Norte 19 Nordeste 0 -- -- 64
2019-11-11 13:00:00 8.6 3 Norte 13 Oeste 0 -- -- 83
2019-11-11 12:00:00 7.2 4 Oeste 16 Oeste 0 -- -- 88
2019-11-11 11:00:00 4.2 0 Calma 10 Oeste 0 -- -- 97
2019-11-11 10:00:00 3.2 4 Noroeste 14 Noroeste 0 -- -- 97
2019-11-11 09:00:00 2.7 7 Noroeste 13 Oeste 0 -- -- 97
2019-11-11 08:00:00 2.5 6 Norte 11 Noroeste 0 -- -- 98
2019-11-11 07:00:00 2.3 6 Noroeste 12 Noroeste 0 -- -- 98
2019-11-11 06:00:00 2 3 Noroeste 8 Noroeste 0 -- -- 99
2019-11-11 05:00:00 1.6 2 Este 6 Sudeste 0 -- -- 99
2019-11-11 04:00:00 0.9 0 Calma 8 Este 0 -- -- 99
2019-11-11 03:00:00 0.5 0 Calma 4 Sudeste 0 -- -- 98
2019-11-11 02:00:00 0.6 2 Este 7 Este 0 -- -- 97
2019-11-11 01:00:00 1 0 Calma 6 Noroeste 0 -- -- 96
2019-11-11 00:00:00 1.7 0 Calma 6 Norte 0 -- -- 95
2019-11-10 23:00:00 2.5 3 Sudeste 17 Norte 0 -- -- 93
2019-11-10 22:00:00 3.2 9 Norte 17 Noroeste 0 -- -- 92
2019-11-10 21:00:00 3.5 2 Nordeste 13 Noroeste 0 -- -- 90
2019-11-10 20:00:00 3.2 3 Sur 13 Este 0 -- -- 90
2019-11-10 19:00:00 3.9 8 Nordeste 24 Nordeste 0 -- -- 88
2019-11-10 18:00:00 3.5 6 Nordeste 21 Norte 0 -- -- 89
2019-11-10 17:00:00 3.5 3 Nordeste 21 Sudeste 0.6 -- -- 91
2019-11-10 16:00:00 4.7 11 Nordeste 32 Norte 0 -- -- 80
2019-11-10 15:00:00 4.9 6 Nordeste 23 Norte 0.2 -- -- 85
2019-11-10 14:00:00 3 5 Norte 27 Norte 2.2 -- -- 93
2019-11-10 13:00:00 4.1 7 Norte 14 Nordeste 0.4 -- -- 94
2019-11-10 12:00:00 2.5 6 Noroeste 14 Noroeste 1.4 -- -- 97
2019-11-10 11:00:00 1.2 3 Nordeste 8 Oeste 2 -- -- 98
2019-11-10 10:00:00 1.1 0 Calma 4 Sudeste 1 -- -- 98
2019-11-10 09:00:00 0.9 2 Norte 9 Este 1.4 -- -- 97
2019-11-10 08:00:00 1.3 6 Norte 18 Noroeste 0 -- -- 97
2019-11-10 07:00:00 0.2 3 Nordeste 7 Nordeste 0 -- -- 97
2019-11-10 06:00:00 0.5 2 Este 12 Este 0 -- -- 95
2019-11-10 05:00:00 1 3 Este 9 Norte 0 -- -- 93
2019-11-10 04:00:00 1.6 4 Nordeste 14 Norte 0 -- -- 93
2019-11-10 03:00:00 1.1 3 Este 9 Noroeste 0 -- -- 96
2019-11-10 02:00:00 1.2 3 Sudeste 15 Este 0 -- -- 93
2019-11-10 01:00:00 2.1 5 Nordeste 14 Este 0.6 -- -- 95
2019-11-10 00:00:00 3.3 6 Este 14 Sudeste 0.8 -- -- 91